Powrót do katalogu

SL-8 DEB *

AktywnyVLEO
NORAD 14818·DEBRIS·🇷🇺 Russia

Wystrzelony Jul 1, 1977 z Plesetsk Cosmodrome

Loading…

Następne Przeloty (najbliższe 24 godziny)

TLE

ŚwieżeSource: Space-Track

Epoka: Sep 14, 2026, 09:17 UTC

1 14818U 77059D   26257.38732775  .00022417  00000-0  75319-3 0  9998
2 14818  74.0395 150.1291 0004842 230.4693 129.6083 15.30751002431265

Śledź SL-8 DEB * w czasie rzeczywistym z AllMySat

Download on the App Store